SWA2533 KLAX-KDEN

Flight info

Callsign SWA2533
Flight time 1h 58m
Altitude 35997
Route ORCKA5 LAS J146 DICEE BUMMP SSKII3
Aircraft B738/M-SDE2E3FGHIRWXY/LB1

Departure

Time 2026-04-20 03:02
Airport Los Angeles International Airport (KLAX)

Arrival

Time 2026-04-20 05:01
Airport Denver International Airport (KDEN)
Time Latitude Longitude Altitude Speed Heading
2026-04-20 02:36 33.94044 -118.40611 122 ft 0 kts 261°
2026-04-20 02:51 33.94045 -118.40602 121 ft 4 kts 257°
2026-04-20 02:51 33.94055 -118.40574 121 ft 4 kts 223°
2026-04-20 02:51 33.94077 -118.40561 123 ft 4 kts 180°
2026-04-20 02:52 33.94085 -118.40561 123 ft 0 kts 173°
2026-04-20 02:55 33.94064 -118.40557 124 ft 8 kts 173°
2026-04-20 02:55 33.93982 -118.40545 124 ft 15 kts 173°
2026-04-20 02:55 33.93868 -118.40527 124 ft 16 kts 166°
2026-04-20 02:56 33.93837 -118.40412 125 ft 17 kts 83°
2026-04-20 02:56 33.93853 -118.40252 124 ft 22 kts 83°
2026-04-20 02:56 33.93874 -118.40054 127 ft 23 kts 83°
2026-04-20 02:56 33.93893 -118.39859 124 ft 21 kts 83°
2026-04-20 02:57 33.93913 -118.39659 109 ft 27 kts 83°
2026-04-20 02:57 33.93939 -118.39411 123 ft 32 kts 82°
2026-04-20 02:57 33.93966 -118.39149 123 ft 33 kts 83°
2026-04-20 02:57 33.93991 -118.38898 127 ft 28 kts 83°
2026-04-20 02:58 33.94016 -118.38658 126 ft 31 kts 83°
2026-04-20 02:58 33.94045 -118.38375 125 ft 36 kts 83°
2026-04-20 02:58 33.94067 -118.38153 127 ft 31 kts 83°
2026-04-20 02:58 33.94074 -118.38085 126 ft 24 kts 83°
2026-04-20 02:59 33.94076 -118.38042 126 ft 0 kts 102°
2026-04-20 03:01 33.94060 -118.38010 124 ft 13 kts 137°
2026-04-20 03:01 33.93992 -118.38014 126 ft 8 kts 224°
2026-04-20 03:01 33.93980 -118.38056 124 ft 3 kts 262°
2026-04-20 03:01 33.93979 -118.38067 125 ft 1 kts 263°
2026-04-20 03:02 33.93951 -118.38354 125 ft 73 kts 263°
2026-04-20 03:02 33.93858 -118.39252 126 ft 139 kts 263°
2026-04-20 03:02 33.93741 -118.40503 477 ft 166 kts 263°
2026-04-20 03:02 33.93580 -118.42018 948 ft 191 kts 260°
2026-04-20 03:03 33.93408 -118.43555 1972 ft 180 kts 262°
2026-04-20 03:03 33.93261 -118.45061 2707 ft 186 kts 262°
2026-04-20 03:03 33.93007 -118.46699 2950 ft 217 kts 251°
2026-04-20 03:03 33.92466 -118.48562 3182 ft 251 kts 248°
2026-04-20 03:04 33.91837 -118.50579 3860 ft 262 kts 247°
2026-04-20 03:04 33.91410 -118.51954 4400 ft 267 kts 247°
2026-04-20 03:04 33.90763 -118.54074 5260 ft 272 kts 247°
2026-04-20 03:04 33.90107 -118.56226 6133 ft 276 kts 247°
2026-04-20 03:05 33.89440 -118.58417 6987 ft 280 kts 247°
2026-04-20 03:05 33.88517 -118.61330 8128 ft 281 kts 238°
2026-04-20 03:05 33.87686 -118.62538 8715 ft 278 kts 215°
2026-04-20 03:05 33.85941 -118.63366 9612 ft 276 kts 182°
2026-04-20 03:06 33.84084 -118.62860 10396 ft 282 kts 150°
2026-04-20 03:06 33.82688 -118.61142 10974 ft 301 kts 120°
2026-04-20 03:06 33.82201 -118.58633 11432 ft 324 kts 90°
2026-04-20 03:06 33.82863 -118.55990 12041 ft 343 kts 60°
2026-04-20 03:07 33.84521 -118.53873 12715 ft 355 kts 40°
2026-04-20 03:07 33.86514 -118.52055 12981 ft 362 kts 39°
2026-04-20 03:07 33.88482 -118.50138 12986 ft 362 kts 43°
2026-04-20 03:07 33.90282 -118.48028 12993 ft 360 kts 50°
2026-04-20 03:08 33.91866 -118.45700 12985 ft 359 kts 57°
2026-04-20 03:08 33.93365 -118.43291 12989 ft 359 kts 53°
2026-04-20 03:08 33.94844 -118.40890 12988 ft 357 kts 59°
2026-04-20 03:08 33.96151 -118.38339 12987 ft 357 kts 62°
2026-04-20 03:09 33.97468 -118.35802 12981 ft 357 kts 59°
2026-04-20 03:09 33.98894 -118.33343 12982 ft 357 kts 57°
2026-04-20 03:09 34.00317 -118.30935 12982 ft 357 kts 58°
2026-04-20 03:09 34.01716 -118.28458 12987 ft 357 kts 58°
2026-04-20 03:10 34.03099 -118.25974 13081 ft 358 kts 58°
2026-04-20 03:10 34.04508 -118.23486 13751 ft 361 kts 58°
2026-04-20 03:10 34.05943 -118.20971 14489 ft 365 kts 58°
2026-04-20 03:10 34.07387 -118.18424 15214 ft 370 kts 58°
2026-04-20 03:11 34.08841 -118.15845 15925 ft 374 kts 58°
2026-04-20 03:11 34.10352 -118.13165 16039 ft 398 kts 58°
2026-04-20 03:11 34.11956 -118.10325 16073 ft 421 kts 57°
2026-04-20 03:11 34.13608 -118.07407 16944 ft 417 kts 57°
2026-04-20 03:12 34.15232 -118.04532 17960 ft 412 kts 58°
2026-04-20 03:12 34.16817 -118.01712 18835 ft 408 kts 58°
2026-04-20 03:12 34.18409 -117.98881 19603 ft 407 kts 57°
2026-04-20 03:12 34.20000 -117.96052 20293 ft 408 kts 57°
2026-04-20 03:13 34.21599 -117.93207 20925 ft 410 kts 57°
2026-04-20 03:13 34.23210 -117.90340 21540 ft 413 kts 57°
2026-04-20 03:13 34.24822 -117.87464 22118 ft 415 kts 56°
2026-04-20 03:13 34.26452 -117.84557 22685 ft 419 kts 56°
2026-04-20 03:14 34.28092 -117.81629 23246 ft 422 kts 56°
2026-04-20 03:14 34.29725 -117.78712 23759 ft 425 kts 56°
2026-04-20 03:14 34.31383 -117.75747 24210 ft 428 kts 56°
2026-04-20 03:14 34.33056 -117.72752 24654 ft 431 kts 55°
2026-04-20 03:15 34.34736 -117.69745 25116 ft 433 kts 54°
2026-04-20 03:15 34.36520 -117.66792 25562 ft 435 kts 53°
2026-04-20 03:15 34.38293 -117.63802 25997 ft 438 kts 53°
2026-04-20 03:15 34.40057 -117.60787 26437 ft 440 kts 53°
2026-04-20 03:16 34.41859 -117.57770 26862 ft 442 kts 52°
2026-04-20 03:16 34.43687 -117.54740 27288 ft 444 kts 52°
2026-04-20 03:16 34.45481 -117.51734 27758 ft 447 kts 52°
2026-04-20 03:16 34.47302 -117.48656 28194 ft 449 kts 52°
2026-04-20 03:17 34.49124 -117.45587 28610 ft 451 kts 52°
2026-04-20 03:17 34.50972 -117.42486 29026 ft 453 kts 52°
2026-04-20 03:17 34.52819 -117.39381 29427 ft 456 kts 52°
2026-04-20 03:17 34.54674 -117.36251 29820 ft 458 kts 52°
2026-04-20 03:18 34.56538 -117.33103 30187 ft 460 kts 52°
2026-04-20 03:18 34.58411 -117.29940 30499 ft 462 kts 52°
2026-04-20 03:18 34.60283 -117.26778 30954 ft 460 kts 52°
2026-04-20 03:18 34.62148 -117.23623 31371 ft 460 kts 52°
2026-04-20 03:19 34.64011 -117.20467 31774 ft 459 kts 52°
2026-04-20 03:19 34.65874 -117.17311 32103 ft 459 kts 52°
2026-04-20 03:19 34.67727 -117.14169 32494 ft 458 kts 52°
2026-04-20 03:19 34.69584 -117.11018 32881 ft 458 kts 52°
2026-04-20 03:20 34.71439 -117.07865 33270 ft 458 kts 52°
2026-04-20 03:20 34.73293 -117.04712 33650 ft 458 kts 52°
2026-04-20 03:20 34.75145 -117.01559 34005 ft 458 kts 52°
2026-04-20 03:20 34.76978 -116.98438 34308 ft 459 kts 52°
2026-04-20 03:21 34.78828 -116.95283 34618 ft 459 kts 52°
2026-04-20 03:21 34.80684 -116.92116 34924 ft 460 kts 52°
2026-04-20 03:21 34.82543 -116.88940 35236 ft 460 kts 52°
2026-04-20 03:21 34.84403 -116.85761 35521 ft 461 kts 53°
2026-04-20 03:22 34.86262 -116.82579 35820 ft 462 kts 53°
2026-04-20 03:22 34.89977 -116.76211 35902 ft 458 kts 53°
2026-04-20 03:23 34.93914 -116.70208 35917 ft 455 kts 45°
2026-04-20 03:23 34.98250 -116.64557 35908 ft 456 kts 45°
2026-04-20 03:24 35.02562 -116.58849 35899 ft 457 kts 45°
2026-04-20 03:24 35.06888 -116.53154 35893 ft 457 kts 45°
2026-04-20 03:25 35.11205 -116.47442 35878 ft 457 kts 45°
2026-04-20 03:25 35.15528 -116.41720 35877 ft 457 kts 45°
2026-04-20 03:26 35.19807 -116.36044 35903 ft 457 kts 46°
2026-04-20 03:26 35.24112 -116.30326 35900 ft 456 kts 46°
2026-04-20 03:27 35.28409 -116.24608 35884 ft 456 kts 46°
2026-04-20 03:27 35.32726 -116.18852 35889 ft 459 kts 46°
2026-04-20 03:28 35.37041 -116.13090 35904 ft 459 kts 46°
2026-04-20 03:28 35.43515 -116.04427 35910 ft 459 kts 46°
2026-04-20 03:29 35.47797 -115.98686 35925 ft 459 kts 46°
2026-04-20 03:29 35.52104 -115.92901 35920 ft 459 kts 47°
2026-04-20 03:30 35.56421 -115.87091 35938 ft 460 kts 47°
2026-04-20 03:30 35.60730 -115.81284 35938 ft 460 kts 47°
2026-04-20 03:31 35.65034 -115.75460 35954 ft 459 kts 47°
2026-04-20 03:31 35.69252 -115.69627 35952 ft 459 kts 47°
2026-04-20 03:32 35.73513 -115.63781 35951 ft 459 kts 47°
2026-04-20 03:32 35.77765 -115.57914 35953 ft 460 kts 48°
2026-04-20 03:33 35.82036 -115.52018 35961 ft 460 kts 48°
2026-04-20 03:33 35.86304 -115.46115 35963 ft 461 kts 48°
2026-04-20 03:34 35.90576 -115.40194 35967 ft 461 kts 48°
2026-04-20 03:34 35.94816 -115.34309 35963 ft 461 kts 48°
2026-04-20 03:35 35.99089 -115.28366 35951 ft 465 kts 49°
2026-04-20 03:35 36.03372 -115.22400 35932 ft 464 kts 49°
2026-04-20 03:36 36.07514 -115.16318 35946 ft 462 kts 59°
2026-04-20 03:36 36.08966 -115.12780 35952 ft 460 kts 70°
2026-04-20 03:36 36.10119 -115.09097 35943 ft 460 kts 71°
2026-04-20 03:37 36.12367 -115.01724 35877 ft 460 kts 71°
2026-04-20 03:37 36.14656 -114.94334 35865 ft 459 kts 71°
2026-04-20 03:38 36.16924 -114.86923 35857 ft 459 kts 71°
2026-04-20 03:38 36.19193 -114.79529 35850 ft 459 kts 71°
2026-04-20 03:39 36.21465 -114.72117 35838 ft 459 kts 71°
2026-04-20 03:39 36.23712 -114.64760 35825 ft 459 kts 71°
2026-04-20 03:40 36.25969 -114.57353 35820 ft 459 kts 71°
2026-04-20 03:40 36.28219 -114.49955 35831 ft 459 kts 71°
2026-04-20 03:41 36.30471 -114.42524 35837 ft 460 kts 71°
2026-04-20 03:41 36.32709 -114.35126 35831 ft 460 kts 71°
2026-04-20 03:42 36.34949 -114.27697 35827 ft 459 kts 71°
2026-04-20 03:42 36.37187 -114.20259 35838 ft 459 kts 71°
2026-04-20 03:43 36.39417 -114.12824 35855 ft 460 kts 71°
2026-04-20 03:43 36.41649 -114.05366 35850 ft 461 kts 72°
2026-04-20 03:44 36.43882 -113.97884 35878 ft 462 kts 72°
2026-04-20 03:44 36.46095 -113.90450 35876 ft 461 kts 72°
2026-04-20 03:45 36.48317 -113.82964 35895 ft 461 kts 72°
2026-04-20 03:45 36.50531 -113.75487 35894 ft 461 kts 72°
2026-04-20 03:46 36.52743 -113.67993 35918 ft 463 kts 72°
2026-04-20 03:46 36.54956 -113.60479 35930 ft 463 kts 72°
2026-04-20 03:47 36.57166 -113.52953 35930 ft 463 kts 72°
2026-04-20 03:47 36.59369 -113.45432 35941 ft 462 kts 72°
2026-04-20 03:48 36.61557 -113.37941 35939 ft 464 kts 72°
2026-04-20 03:48 36.63758 -113.30383 35951 ft 465 kts 72°
2026-04-20 03:49 36.65953 -113.22810 35972 ft 464 kts 72°
2026-04-20 03:49 36.68142 -113.15245 36000 ft 464 kts 72°
2026-04-20 03:50 36.70325 -113.07677 36024 ft 463 kts 72°
2026-04-20 03:50 36.72502 -113.00109 36040 ft 463 kts 72°
2026-04-20 03:51 36.74654 -112.92606 36045 ft 463 kts 72°
2026-04-20 03:51 36.76816 -112.85051 36041 ft 462 kts 72°
2026-04-20 03:52 36.78973 -112.77491 36024 ft 463 kts 72°
2026-04-20 03:52 36.80765 -112.71193 36024 ft 462 kts 72°
2026-04-20 03:53 36.82912 -112.63627 36002 ft 462 kts 72°
2026-04-20 03:53 36.85055 -112.56058 35992 ft 462 kts 72°
2026-04-20 03:54 36.87190 -112.48494 35989 ft 461 kts 72°
2026-04-20 03:54 36.89313 -112.40945 36009 ft 467 kts 72°
2026-04-20 03:55 36.91452 -112.33291 36009 ft 466 kts 72°
2026-04-20 03:55 36.93598 -112.25647 36019 ft 465 kts 72°
2026-04-20 03:56 36.95722 -112.18039 36019 ft 466 kts 72°
2026-04-20 03:56 36.97844 -112.10425 36014 ft 467 kts 72°
2026-04-20 03:57 36.99986 -112.02715 36017 ft 469 kts 72°
2026-04-20 03:57 37.02123 -111.95000 36017 ft 469 kts 72°
2026-04-20 03:58 37.04257 -111.87273 36007 ft 470 kts 72°
2026-04-20 03:58 37.06384 -111.79554 36005 ft 468 kts 72°
2026-04-20 03:59 37.08498 -111.71853 35994 ft 467 kts 72°
2026-04-20 03:59 37.10611 -111.64138 35999 ft 468 kts 72°
2026-04-20 04:00 37.12718 -111.56421 35998 ft 468 kts 72°
2026-04-20 04:00 37.14809 -111.48740 36030 ft 462 kts 73°
2026-04-20 04:01 37.16888 -111.41075 36041 ft 468 kts 73°
2026-04-20 04:01 37.18980 -111.33351 36029 ft 468 kts 73°
2026-04-20 04:02 37.21067 -111.25613 36014 ft 468 kts 73°
2026-04-20 04:02 37.23607 -111.18093 35999 ft 470 kts 64°
2026-04-20 04:03 37.26592 -111.10784 35992 ft 468 kts 64°
2026-04-20 04:03 37.29467 -111.03461 35998 ft 468 kts 64°
2026-04-20 04:04 37.32370 -110.96193 36003 ft 468 kts 64°
2026-04-20 04:04 37.35265 -110.88863 36005 ft 468 kts 64°
2026-04-20 04:05 37.38168 -110.81520 36005 ft 468 kts 64°
2026-04-20 04:05 37.41043 -110.74225 35998 ft 463 kts 64°
2026-04-20 04:06 37.43909 -110.66934 36001 ft 464 kts 64°
2026-04-20 04:06 37.46774 -110.59635 36005 ft 464 kts 64°
2026-04-20 04:07 37.49631 -110.52332 36004 ft 464 kts 64°
2026-04-20 04:07 37.52460 -110.45088 36013 ft 463 kts 64°
2026-04-20 04:08 37.55294 -110.37814 36018 ft 461 kts 64°
2026-04-20 04:08 37.58109 -110.30570 36025 ft 460 kts 64°
2026-04-20 04:09 37.60931 -110.23292 36026 ft 462 kts 64°
2026-04-20 04:09 37.63749 -110.16008 36041 ft 462 kts 64°
2026-04-20 04:10 37.66569 -110.08701 36040 ft 463 kts 64°
2026-04-20 04:10 37.69390 -110.01373 36056 ft 463 kts 64°
2026-04-20 04:11 37.72182 -109.94103 36054 ft 463 kts 64°
2026-04-20 04:11 37.74989 -109.86778 36064 ft 463 kts 64°
2026-04-20 04:12 37.77789 -109.79455 36068 ft 463 kts 64°
2026-04-20 04:12 37.80588 -109.72116 36073 ft 463 kts 64°
2026-04-20 04:13 37.83369 -109.64806 36109 ft 463 kts 64°
2026-04-20 04:13 37.86155 -109.57468 36108 ft 462 kts 64°
2026-04-20 04:14 37.88934 -109.50128 36100 ft 462 kts 64°
2026-04-20 04:14 37.91710 -109.42780 36078 ft 461 kts 64°
2026-04-20 04:15 37.94470 -109.35456 36076 ft 461 kts 64°
2026-04-20 04:15 37.97218 -109.28145 36091 ft 461 kts 64°
2026-04-20 04:16 37.99972 -109.20804 36091 ft 460 kts 64°
2026-04-20 04:16 38.02717 -109.13468 36090 ft 460 kts 64°
2026-04-20 04:17 38.05459 -109.06122 36085 ft 459 kts 64°
2026-04-20 04:17 38.08186 -108.98797 36084 ft 459 kts 64°
2026-04-20 04:18 38.10979 -108.91560 36089 ft 458 kts 63°
2026-04-20 04:18 38.13772 -108.84279 36088 ft 459 kts 63°
2026-04-20 04:19 38.16657 -108.77023 36088 ft 459 kts 63°
2026-04-20 04:19 38.19498 -108.69744 36096 ft 459 kts 63°
2026-04-20 04:20 38.22339 -108.62487 36096 ft 459 kts 63°
2026-04-20 04:20 38.25182 -108.55205 36109 ft 459 kts 63°
2026-04-20 04:21 38.28017 -108.47916 36111 ft 459 kts 63°
2026-04-20 04:21 38.30830 -108.40677 36112 ft 460 kts 63°
2026-04-20 04:22 38.33681 -108.33315 36111 ft 463 kts 63°
2026-04-20 04:22 38.36529 -108.25949 36133 ft 463 kts 62°
2026-04-20 04:23 38.39366 -108.18589 36160 ft 462 kts 63°
2026-04-20 04:23 38.42180 -108.11273 36191 ft 462 kts 63°
2026-04-20 04:24 38.45010 -108.03898 36219 ft 463 kts 63°
2026-04-20 04:24 38.47824 -107.96517 36240 ft 463 kts 63°
2026-04-20 04:25 38.50614 -107.89108 36239 ft 463 kts 63°
2026-04-20 04:25 38.53413 -107.81705 36240 ft 463 kts 63°
2026-04-20 04:26 38.54806 -107.77998 36116 ft 463 kts 63°
2026-04-20 04:26 38.56197 -107.74293 36133 ft 463 kts 63°
2026-04-20 04:26 38.58982 -107.66879 36115 ft 463 kts 63°
2026-04-20 04:27 38.61763 -107.59449 36135 ft 464 kts 63°
2026-04-20 04:27 38.64545 -107.52001 36137 ft 464 kts 63°
2026-04-20 04:28 38.67317 -107.44614 35881 ft 464 kts 62°
2026-04-20 04:28 38.68741 -107.40898 35541 ft 466 kts 62°
2026-04-20 04:28 38.70166 -107.37152 35240 ft 468 kts 62°
2026-04-20 04:29 38.71578 -107.33396 34953 ft 469 kts 62°
2026-04-20 04:29 38.72998 -107.29619 34692 ft 469 kts 62°
2026-04-20 04:29 38.74422 -107.25852 34420 ft 469 kts 62°
2026-04-20 04:29 38.75844 -107.22085 34169 ft 469 kts 62°
2026-04-20 04:30 38.77258 -107.18322 33908 ft 466 kts 62°
2026-04-20 04:30 38.78657 -107.14591 33607 ft 463 kts 62°
2026-04-20 04:30 38.80030 -107.10933 33312 ft 460 kts 62°
2026-04-20 04:30 38.81417 -107.07237 33005 ft 457 kts 62°
2026-04-20 04:31 38.82788 -107.03573 32736 ft 455 kts 62°
2026-04-20 04:31 38.84152 -106.99923 32437 ft 452 kts 62°
2026-04-20 04:31 38.85505 -106.96297 32134 ft 449 kts 62°
2026-04-20 04:31 38.86847 -106.92700 31845 ft 446 kts 62°
2026-04-20 04:32 38.88183 -106.89114 31561 ft 443 kts 62°
2026-04-20 04:32 38.89508 -106.85551 31297 ft 441 kts 62°
2026-04-20 04:32 38.90828 -106.81999 31027 ft 438 kts 62°
2026-04-20 04:32 38.92137 -106.78472 30745 ft 436 kts 62°
2026-04-20 04:33 38.93437 -106.74965 30483 ft 433 kts 62°
2026-04-20 04:33 38.94729 -106.71476 30177 ft 431 kts 62°
2026-04-20 04:33 38.95996 -106.68051 29864 ft 428 kts 61°
2026-04-20 04:33 38.97271 -106.64599 29538 ft 426 kts 61°
2026-04-20 04:34 38.98537 -106.61170 29217 ft 423 kts 61°
2026-04-20 04:34 38.99791 -106.57765 28931 ft 420 kts 62°
2026-04-20 04:34 39.01039 -106.54370 28628 ft 418 kts 62°
2026-04-20 04:34 39.02272 -106.50997 28342 ft 416 kts 62°
2026-04-20 04:35 39.03495 -106.47650 28051 ft 413 kts 62°
2026-04-20 04:35 39.04721 -106.44297 27793 ft 411 kts 62°
2026-04-20 04:35 39.05936 -106.40973 27497 ft 409 kts 62°
2026-04-20 04:35 39.07139 -106.37674 27222 ft 406 kts 62°
2026-04-20 04:36 39.09508 -106.31165 26663 ft 402 kts 62°
2026-04-20 04:36 39.10694 -106.27903 26379 ft 400 kts 62°
2026-04-20 04:36 39.11867 -106.24672 26090 ft 398 kts 62°
2026-04-20 04:37 39.13038 -106.21442 25805 ft 396 kts 62°
2026-04-20 04:37 39.14197 -106.18246 25517 ft 394 kts 62°
2026-04-20 04:37 39.15356 -106.15041 25209 ft 392 kts 62°
2026-04-20 04:37 39.16501 -106.11865 24907 ft 390 kts 62°
2026-04-20 04:38 39.17640 -106.08694 24602 ft 388 kts 62°
2026-04-20 04:38 39.18771 -106.05544 24300 ft 386 kts 62°
2026-04-20 04:38 39.19898 -106.02410 24000 ft 385 kts 63°
2026-04-20 04:38 39.21018 -105.99289 23684 ft 383 kts 63°
2026-04-20 04:39 39.22118 -105.96215 23323 ft 381 kts 62°
2026-04-20 04:39 39.23229 -105.93112 22903 ft 380 kts 62°
2026-04-20 04:39 39.24334 -105.90023 22575 ft 378 kts 62°
2026-04-20 04:39 39.25443 -105.86953 22245 ft 376 kts 62°
2026-04-20 04:40 39.26549 -105.83898 21933 ft 375 kts 62°
2026-04-20 04:40 39.27646 -105.80852 21615 ft 373 kts 63°
2026-04-20 04:40 39.28368 -105.78840 21412 ft 372 kts 63°
2026-04-20 04:40 39.29454 -105.75813 21083 ft 370 kts 63°
2026-04-20 04:41 39.30535 -105.72802 20778 ft 369 kts 63°
2026-04-20 04:41 39.31612 -105.69801 20482 ft 367 kts 63°
2026-04-20 04:41 39.32683 -105.66811 20183 ft 365 kts 63°
2026-04-20 04:41 39.33758 -105.63853 19887 ft 363 kts 62°
2026-04-20 04:42 39.34867 -105.60850 19286 ft 372 kts 62°
2026-04-20 04:42 39.35968 -105.57850 18710 ft 378 kts 63°
2026-04-20 04:42 39.37094 -105.54748 18175 ft 381 kts 63°
2026-04-20 04:42 39.38211 -105.51665 17924 ft 374 kts 63°
2026-04-20 04:43 39.39312 -105.48639 17608 ft 369 kts 63°
2026-04-20 04:43 39.40398 -105.45658 17241 ft 365 kts 63°
2026-04-20 04:43 39.41417 -105.42701 17116 ft 352 kts 71°
2026-04-20 04:43 39.41736 -105.39707 17130 ft 317 kts 87°
2026-04-20 04:44 39.41746 -105.37022 17112 ft 282 kts 90°
2026-04-20 04:44 39.41717 -105.34608 17073 ft 255 kts 90°
2026-04-20 04:44 39.41725 -105.32354 17095 ft 252 kts 89°
2026-04-20 04:44 39.41748 -105.30079 16943 ft 251 kts 89°
2026-04-20 04:45 39.41764 -105.27843 16719 ft 249 kts 89°
2026-04-20 04:45 39.41774 -105.25594 16499 ft 249 kts 89°
2026-04-20 04:45 39.41784 -105.23384 16273 ft 239 kts 89°
2026-04-20 04:45 39.41794 -105.21301 16028 ft 224 kts 89°
2026-04-20 04:46 39.41804 -105.19333 15809 ft 217 kts 89°
2026-04-20 04:46 39.41814 -105.17361 15608 ft 219 kts 89°
2026-04-20 04:46 39.41822 -105.15404 15397 ft 216 kts 89°
2026-04-20 04:46 39.41831 -105.13462 15187 ft 216 kts 89°
2026-04-20 04:47 39.41839 -105.11549 14979 ft 214 kts 89°
2026-04-20 04:47 39.41846 -105.09622 14777 ft 214 kts 89°
2026-04-20 04:47 39.41854 -105.07696 14565 ft 213 kts 89°
2026-04-20 04:47 39.41861 -105.05789 14356 ft 212 kts 89°
2026-04-20 04:48 39.41867 -105.03882 14145 ft 211 kts 90°
2026-04-20 04:48 39.41873 -105.01988 13940 ft 210 kts 90°
2026-04-20 04:48 39.41879 -105.00104 13718 ft 209 kts 90°
2026-04-20 04:48 39.41885 -104.98230 13571 ft 207 kts 90°
2026-04-20 04:49 39.41890 -104.96372 13362 ft 206 kts 90°
2026-04-20 04:49 39.41899 -104.94547 13169 ft 205 kts 88°
2026-04-20 04:49 39.42073 -104.92714 12977 ft 204 kts 84°
2026-04-20 04:49 39.42219 -104.90860 12771 ft 205 kts 84°
2026-04-20 04:50 39.42366 -104.89055 12576 ft 206 kts 83°
2026-04-20 04:50 39.42529 -104.87214 12378 ft 207 kts 84°
2026-04-20 04:50 39.42694 -104.85367 12173 ft 203 kts 84°
2026-04-20 04:50 39.42856 -104.83539 11971 ft 201 kts 84°
2026-04-20 04:51 39.43014 -104.81762 11779 ft 203 kts 85°
2026-04-20 04:51 39.43174 -104.79952 11576 ft 201 kts 86°
2026-04-20 04:51 39.43332 -104.78164 11374 ft 198 kts 86°
2026-04-20 04:51 39.43607 -104.76441 11164 ft 197 kts 61°
2026-04-20 04:52 39.44553 -104.75175 11190 ft 204 kts 39°
2026-04-20 04:52 39.45665 -104.74073 11188 ft 198 kts 36°
2026-04-20 04:52 39.46780 -104.73003 11184 ft 198 kts 37°
2026-04-20 04:52 39.47909 -104.71900 11187 ft 203 kts 37°
2026-04-20 04:53 39.49000 -104.70823 11183 ft 198 kts 37°
2026-04-20 04:53 39.50116 -104.69723 11182 ft 200 kts 37°
2026-04-20 04:53 39.51228 -104.68628 11184 ft 200 kts 37°
2026-04-20 04:53 39.52301 -104.67570 11166 ft 190 kts 37°
2026-04-20 04:54 39.53385 -104.66591 11149 ft 189 kts 24°
2026-04-20 04:54 39.54637 -104.66372 10933 ft 172 kts 359°
2026-04-20 04:54 39.55777 -104.66368 10733 ft 165 kts 357°
2026-04-20 04:54 39.56919 -104.66364 10514 ft 159 kts 359°
2026-04-20 04:55 39.58042 -104.66353 10298 ft 162 kts 359°
2026-04-20 04:55 39.59175 -104.66339 10096 ft 164 kts 360°
2026-04-20 04:55 39.60319 -104.66326 9864 ft 162 kts
2026-04-20 04:55 39.61446 -104.66312 9670 ft 161 kts
2026-04-20 04:56 39.62578 -104.66298 9464 ft 164 kts
2026-04-20 04:56 39.63700 -104.66285 9254 ft 162 kts
2026-04-20 04:56 39.64830 -104.66271 9048 ft 162 kts
2026-04-20 04:56 39.65958 -104.66258 8838 ft 162 kts
2026-04-20 04:57 39.67089 -104.66244 8626 ft 161 kts
2026-04-20 04:57 39.68212 -104.66231 8421 ft 163 kts
2026-04-20 04:57 39.69331 -104.66217 8198 ft 162 kts
2026-04-20 04:57 39.70465 -104.66204 8000 ft 162 kts
2026-04-20 04:58 39.71597 -104.66190 7783 ft 163 kts
2026-04-20 04:58 39.72735 -104.66176 7578 ft 162 kts
2026-04-20 04:58 39.73872 -104.66163 7368 ft 163 kts
2026-04-20 04:58 39.75009 -104.66149 7157 ft 164 kts
2026-04-20 04:59 39.76128 -104.66136 6928 ft 164 kts
2026-04-20 04:59 39.77282 -104.66122 6691 ft 164 kts
2026-04-20 04:59 39.78417 -104.66109 6469 ft 163 kts
2026-04-20 04:59 39.79539 -104.66095 6216 ft 158 kts
2026-04-20 05:00 39.80618 -104.66083 5994 ft 153 kts
2026-04-20 05:00 39.81680 -104.66069 5729 ft 152 kts
2026-04-20 05:00 39.82740 -104.66058 5474 ft 153 kts
2026-04-20 05:00 39.83753 -104.66044 5363 ft 128 kts
2026-04-20 05:01 39.84446 -104.66037 5382 ft 67 kts
2026-04-20 05:01 39.84735 -104.66065 5377 ft 25 kts 347°
2026-04-20 05:01 39.84854 -104.66116 5378 ft 15 kts 333°
2026-04-20 05:01 39.84910 -104.66186 5376 ft 9 kts 273°
2026-04-20 05:02 39.84871 -104.66241 5378 ft 11 kts 196°
2026-04-20 05:02 39.84782 -104.66249 5378 ft 15 kts 181°
2026-04-20 05:02 39.84697 -104.66293 5383 ft 13 kts 234°
2026-04-20 05:02 39.84674 -104.66406 5384 ft 14 kts 256°